This demonstration page uses our WeatherBlox Daily Observations layout. Learn more.

Left ArrowRight Arrow

Hourly Observations for September 24, 2019

Temp ( °F °C ) Dew Point ( °F °C ) Humidity (%) Winds ( mph kmh ) Pressure ( in mb ) Visibility ( mi km ) Precip ( " mm )
12:53 am 00:53 Clear 66 18.9 54 12.2 65 65 S 7 11 29.91 1013 10 16 0.00 0.00
1:53 am 01:53 Clear 68 20 57 13.9 68 68 S 8 13 29.89 1012 10 16 0.00 0.00
2:53 am 02:53 Clear 68 20 58 14.4 70 70 SSW 8 13 29.89 1012 10 16 0.00 0.00
3:53 am 03:53 Clear 67 19.4 60 15.6 79 79 S 7 11 29.87 1012 10 16 0.00 0.00
4:53 am 04:53 Clear 65 18.3 61 16.1 87 87 S 7 11 29.86 1011 10 16 0.00 0.00
5:53 am 05:53 Clear 64 17.8 61 16.1 90 90 S 8 13 29.86 1011 10 16 0.00 0.00
6:38 am 06:38 Partly Cloudy 65 18.3 61 16.1 87 87 S 12 19 29.84 1010 10 16 0.00 0.00
6:46 am 06:46 Mostly Cloudy 65 18.3 62 16.7 90 90 S 9 15 29.84 1010 10 16 0.00 0.00
6:53 am 06:53 Mostly Cloudy 66 18.9 62 16.7 87 87 S 8 13 29.85 1011 10 16 0.00 0.00
7:53 am 07:53 Cloudy with Mist and Fog 68 20 65 18.3 90 90 S 9 15 29.83 1010 6 10 0.00 0.00
8:53 am 08:53 Cloudy with Mist and Fog 69 20.6 66 18.9 90 90 SSW 7 11 29.84 1011 5 8 0.00 0.00
9:53 am 09:53 Cloudy with Mist and Fog 70 21.1 66 18.9 87 87 SSW 7 11 29.84 1011 6 10 0.00 0.00
10:53 am 10:53 Cloudy 72 22.2 67 19.4 84 84 SW 9 15 29.83 1010 7 11 0.00 0.00
11:53 am 11:53 Cloudy 74 23.3 68 20 82 82 SSW 13 20 29.81 1010 8 13 0.00 0.00
12:06 pm 12:06 Cloudy 73 23 68 20 83 83 SSW 13 20 29.77 1008 8 13 0.00 0.00
12:20 pm 12:20 Cloudy 74 23.3 68 20 82 82 SSW 13 20 29.76 1008 8 13 0.00 0.00
12:44 pm 12:44 Cloudy 72 22 68 20 88 88 S 7 11 29.76 1008 7 11 0.00 0.00
12:53 pm 12:53 Cloudy with Mist and Fog 72 22.2 68 20 87 87 S 6 9 29.80 1009 6 10 0.00 0.00
1:53 pm 13:53 Cloudy 75 23.9 68 20 79 79 S 12 19 29.76 1008 8 13 0.00 0.00
2:43 pm 14:43 Partly Cloudy 79 26.1 69 20.6 72 72 S 13 20 29.68 1005 10 16 0.00 0.00
2:53 pm 14:53 Mostly Sunny 79 26.1 69 20.6 72 72 S 14 22 29.72 1007 10 16 0.00 0.00
3:53 pm 15:53 Cloudy 80 26.7 68 20 67 67 SSW 13 20 29.72 1006 10 16 0.00 0.00
4:09 pm 16:09 Mostly Cloudy 81 27 68 20 66 66 SSW 13 20 29.65 1004 10 16 0.00 0.00
4:53 pm 16:53 Sunny 82 27.8 66 18.9 58 58 SSW 13 20 29.69 1005 10 16 0.00 0.00
5:53 pm 17:53 Sunny 82 27.8 65 18.3 56 56 SSW 13 20 29.67 1005 10 16 0.00 0.00
6:53 pm 18:53 Sunny 80 26.7 65 18.3 60 60 SSW 6 9 29.67 1005 10 16 0.00 0.00
7:53 pm 19:53 Clear 76 24.4 66 18.9 72 72 S 5 7 29.67 1005 9 14 0.00 0.00
8:53 pm 20:53 Partly Cloudy 75 23.9 62 16.7 64 64 NNW 12 19 29.72 1006 10 16 0.00 0.00
9:53 pm 21:53 Clear 69 20.6 54 12.2 59 59 N 7 11 29.75 1008 10 16 0.00 0.00
10:53 pm 22:53 Clear 66 18.9 54 12.2 65 65 N 8 13 29.78 1008 10 16 0.00 0.00
11:53 pm 23:53 Clear 64 17.8 54 12.2 70 70 ENE 5 7 29.78 1009 10 16 0.00 0.00

Powered by AerisWeather